Weather in Brykin Bor

Russia / Ryazan Oblast     54°42′29″N   40°51′26″E
temp.,
°C
wind,
m/s
gust,
m/s
humid.,
%
clouds,
%
prec.,
mm/h
press.,
hPa
HPBL,
m
31 july, sat
sat3100:00+17sw269928 0.0 1004139
03:00+17wsw269812 0.0 1004134
06:00+17w39965 0.0 1005266
09:00+22w496087 0.0 1006821
12:00+25w69390 0.0 10062044
15:00+27w610350 0.0 10062604
18:00+26w494523 0.0 10071474
21:00+21w266578 0.0 1008156
1 august, sun
sun100:00+18wsw227512 0.0 101036
03:00+16wsw2376100 0.0 101146
06:00+17wsw247670 0.0 1012101
09:00+24wsw355127 0.0 1012571
12:00+28sw453897 0.0 10121628
15:00+30sw4636100 0.0 10111939
18:00+28s3846100 0.0 1010397
21:00+22sw225879 0.1 101020
2 august, mon
mon200:00+20w116938 0.0 101111
03:00+19ese008123 0.1 101111
06:00+19s247672 0.0 101190
09:00+24ssw265886 0.2 1011347
12:00+32ssw483313 0.1 10092324
15:00+32s373599 0.1 1007986
18:00+22ene1179100 0.7 100733
21:00+24ese4115871 0.7 1005280
3 august, tue
tue300:00+20s2685100 0.4 1005126
03:00+19ssw31186100 0.4 1005254
06:00+19s248797 0.2 100495
09:00+23sw6969100 0.2 1005945
12:00+25sw575969 0.1 10051403
15:00+24sw686653 0.4 10061333
18:00+21w597317 0.3 1007941
21:00+17w410845 0.3 1010659
4 august, wed
wed400:00+15w39930 0.0 1011303
03:00+13wsw279813 0.0 1012162
06:00+14w28900 0.0 1013254
09:00+20wnw35570 0.0 1014799
12:00+24w45429 0.0 10142088
15:00+26wnw453546 0.0 10152570
18:00+21nw275399 0.0 1015232
21:00+19nnw2359100 0.0 101766